Aurora, NE

11:36 AM CDT on March 28, 2017 (GMT -0500)
Aurora Municipal

Weather History for KAUH - January, 2014

Change the Weather History Date:

Monday, January 20, 2014

  Actual Average Record
Temperature  
Mean Temperature 27 °F -  
Max Temperature 47 °F 35 °F 64 °F (1964)
Min Temperature 6 °F 15 °F -14 °F (1985)
Degree Days  
Heating Degree Days 38    
Moisture  
Dew Point 13 °F    
Average Humidity 52    
Maximum Humidity 67    
Minimum Humidity 33    
Precipitation  
Precipitation 0.00 in - - ()
Sea Level Pressure  
Sea Level Pressure 30.12 in    
Wind  
Wind Speed 16 mph (NNW)    
Max Wind Speed 40 mph    
Max Gust Speed 54 mph    
Visibility 10 miles    
Events      
Averages and records for this station are not official NWS values.
T = Trace of Precipitation, MM = Missing Value Source: NWS Daily Summary

Daily Weather History Graph

Daily Weather History Graph

Search for Another Location

Airport or City:

Trip Planner

Search our weather history database for the weather conditions in past years. The results will help you decide how hot, cold, wet, or windy it might be!

Date:

Astronomy

Jan. 20, 2014 Rise Set
Actual Time 7:51 AM CST 5:34 PM CST
Civil Twilight 7:21 AM CST 6:04 PM CST
Nautical Twilight 6:48 AM CST 6:38 PM CST
Astronomical Twilight 6:15 AM CST 7:10 PM CST
Moon 10:13 PM CST (1/20) 9:50 AM CST (1/20)
Length of Visible Light 10h 42m
Length of Day
9h 42m
Waning Gibbous, 82% of the Moon is Illuminated
Jan 20
Waning Gibbous
Jan 23
Last Quarter
Jan 30
New
Feb 6
First Quarter
Feb 14
Full

Hourly Weather History & Observations

Time (CST) Temp. Windchill Dew Point Humidity Pressure Visibility Wind Dir Wind Speed Gust Speed Precip Events Conditions
12:15 AM 33.8 °F 27.0 °F 12.2 °F 41% 29.85 in 10.0 mi NNW 8.1 mph - N/A   Clear
12:35 AM 29.7 °F 22.8 °F 11.5 °F 47% 29.86 in 10.0 mi NNW 6.9 mph - N/A   Clear
12:55 AM 31.8 °F 28.5 °F 13.1 °F 46% 29.86 in 10.0 mi WNW 3.5 mph - N/A   Clear
1:15 AM 29.7 °F 22.8 °F 11.5 °F 47% 29.86 in 10.0 mi NW 6.9 mph - N/A   Clear
1:35 AM 35.1 °F 28.6 °F 15.1 °F 44% 29.86 in 10.0 mi North 8.1 mph - N/A   Clear
1:55 AM 29.1 °F 22.1 °F 12.7 °F 50% 29.87 in 10.0 mi NW 6.9 mph - N/A   Clear
2:15 AM 27.5 °F 19.3 °F 12.4 °F 53% 29.87 in 10.0 mi NNW 8.1 mph - N/A   Clear
2:35 AM 27.3 °F 19.9 °F 12.4 °F 53% 29.88 in 10.0 mi NNW 6.9 mph - N/A   Clear
2:55 AM 27.7 °F 22.4 °F 13.1 °F 54% 29.89 in 10.0 mi WNW 4.6 mph - N/A   Clear
3:15 AM 29.1 °F 21.3 °F 13.8 °F 53% 29.90 in 10.0 mi NW 8.1 mph - N/A   Clear
3:35 AM 27.0 °F 18.7 °F 13.6 °F 57% 29.90 in 10.0 mi NW 8.1 mph - N/A   Clear
3:55 AM 27.3 °F 19.1 °F 14.0 °F 57% 29.91 in 10.0 mi NW 8.1 mph - N/A   Clear
4:15 AM 27.7 °F 18.8 °F 14.4 °F 57% 29.92 in 10.0 mi NNW 9.2 mph - N/A   Clear
4:35 AM 24.1 °F 17.0 °F 13.8 °F 65% 29.92 in 10.0 mi NW 5.8 mph - N/A   Clear
4:55 AM 26.2 °F 20.7 °F 15.3 °F 63% 29.92 in 10.0 mi NW 4.6 mph - N/A   Clear
5:15 AM 25.2 °F 19.5 °F 14.5 °F 64% 29.95 in 10.0 mi WNW 4.6 mph - N/A   Clear
5:35 AM 25.9 °F 19.2 °F 14.7 °F 63% 29.95 in 10.0 mi WNW 5.8 mph - N/A   Clear
5:55 AM 25.0 °F 17.1 °F 15.1 °F 66% 29.95 in 10.0 mi NNW 6.9 mph - N/A   Clear
6:15 AM 25.5 °F 19.9 °F 16.0 °F 67% 29.96 in 10.0 mi NNW 4.6 mph - N/A   Clear
6:35 AM 29.1 °F 20.6 °F 18.3 °F 64% 29.97 in 10.0 mi NNW 9.2 mph - N/A   Clear
6:55 AM 28.0 °F 20.0 °F 17.4 °F 64% 29.98 in 10.0 mi NW 8.1 mph - N/A   Clear
7:15 AM 27.0 °F 18.7 °F 16.9 °F 66% 29.98 in 10.0 mi WNW 8.1 mph - N/A   Clear
7:35 AM 27.9 °F 18.4 °F 18.1 °F 67% 29.99 in 10.0 mi WNW 10.4 mph - N/A   Clear
7:55 AM 29.3 °F 19.1 °F 18.5 °F 64% 30.00 in 10.0 mi WNW 12.7 mph - N/A   Clear
8:15 AM 29.3 °F 20.8 °F 19.0 °F 66% 30.01 in 10.0 mi WNW 9.2 mph - N/A   Clear
8:35 AM 32.0 °F 24.2 °F 20.7 °F 63% 30.03 in 10.0 mi WNW 9.2 mph - N/A   Clear
8:55 AM 33.8 °F 24.8 °F 21.7 °F 61% 30.05 in 10.0 mi NW 12.7 mph - N/A   Scattered Clouds
9:15 AM 34.5 °F 25.7 °F 22.1 °F 61% 30.05 in 10.0 mi NW 12.7 mph - N/A   Scattered Clouds
9:35 AM 35.8 °F 26.5 °F 22.8 °F 59% 30.07 in 10.0 mi NW 15.0 mph 20.7 mph N/A   Scattered Clouds
9:55 AM 39.6 °F 30.6 °F 23.5 °F 53% 30.08 in 10.0 mi NW 17.3 mph 23.0 mph N/A   Clear
10:15 AM 42.6 °F 33.3 °F 23.2 °F 46% 30.08 in 10.0 mi NW 23.0 mph 29.9 mph N/A   Clear
10:35 AM 44.8 °F 35.2 °F 21.7 °F 40% 30.09 in 10.0 mi NNW 28.8 mph 35.7 mph N/A   Clear
10:55 AM 45.1 °F 35.1 °F 20.5 °F 38% 30.10 in 10.0 mi NNW 32.2 mph 41.4 mph N/A   Clear
11:15 AM 45.7 °F 35.4 °F 20.5 °F 37% 30.11 in 10.0 mi NW 35.7 mph 41.4 mph N/A   Clear
11:35 AM 44.4 °F 34.7 °F 20.3 °F 38% 30.10 in 10.0 mi NNW 28.8 mph 40.3 mph N/A   Clear
11:55 AM 45.7 °F 35.1 °F 20.5 °F 37% 30.09 in 10.0 mi NNW 38.0 mph 51.8 mph N/A   Clear
12:15 PM 47.7 °F - 19.6 °F 33% 30.08 in 10.0 mi NNW 32.2 mph 42.6 mph N/A   Clear
12:35 PM 47.7 °F - 19.6 °F 33% 30.08 in 10.0 mi NW 34.5 mph 43.7 mph N/A   Clear
12:55 PM 47.8 °F - 19.6 °F 33% 30.08 in 10.0 mi NNW 34.5 mph 46.0 mph N/A   Scattered Clouds
1:15 PM 47.7 °F - 19.4 °F 33% 30.08 in 10.0 mi NNW 36.8 mph 44.9 mph N/A   Scattered Clouds
1:35 PM 47.1 °F - 19.4 °F 33% 30.09 in 10.0 mi NNW 34.5 mph 41.4 mph N/A   Mostly Cloudy
1:55 PM 45.5 °F 34.9 °F 18.5 °F 34% 30.10 in 10.0 mi NW 38.0 mph 52.9 mph N/A   Overcast
2:15 PM 45.3 °F 34.5 °F 18.0 °F 34% 30.10 in 10.0 mi NW 39.1 mph 48.3 mph N/A   Overcast
2:35 PM 45.7 °F 35.4 °F 18.1 °F 33% 30.09 in 10.0 mi NW 35.7 mph 43.7 mph N/A   Overcast
2:55 PM 45.7 °F 35.1 °F 17.6 °F 33% 30.09 in 10.0 mi NW 38.0 mph 49.5 mph N/A   Overcast
3:15 PM 44.8 °F 34.0 °F 23.0 °F 42% 30.12 in 10.0 mi NNW 36.8 mph 46.0 mph N/A   Overcast
3:35 PM 41.9 °F 30.5 °F 24.6 °F 50% 30.14 in 10.0 mi NNW 33.4 mph 39.1 mph N/A   Mostly Cloudy
3:55 PM 40.1 °F 27.4 °F 20.5 °F 45% 30.17 in 10.0 mi NNW 38.0 mph 46.0 mph N/A   Mostly Cloudy
4:15 PM 39.2 °F 26.1 °F 15.4 °F 38% 30.17 in 10.0 mi NW 38.0 mph 52.9 mph N/A   Mostly Cloudy
4:35 PM 36.7 °F 22.3 °F 9.7 °F 33% 30.19 in 10.0 mi NNW 40.3 mph 54.1 mph N/A   Scattered Clouds
4:55 PM 34.9 °F 19.8 °F 9.5 °F 35% 30.21 in 10.0 mi NNW 40.3 mph 49.5 mph N/A   Clear
5:15 PM 32.9 °F 18.0 °F 10.6 °F 40% 30.21 in 10.0 mi NNW 34.5 mph 50.6 mph N/A   Clear
5:35 PM 31.1 °F 16.2 °F 11.3 °F 44% 30.23 in 10.0 mi NNW 31.1 mph 42.6 mph N/A   Clear
5:55 PM 28.0 °F 11.5 °F 11.1 °F 49% 30.26 in 10.0 mi NNW 33.4 mph 44.9 mph N/A   Clear
6:15 PM 25.5 °F 9.4 °F 10.4 °F 53% 30.27 in 10.0 mi North 27.6 mph 39.1 mph N/A   Clear
6:35 PM 23.2 °F 6.2 °F 9.0 °F 55% 30.30 in 10.0 mi NNW 27.6 mph 39.1 mph N/A   Clear
6:55 PM 21.2 °F 3.3 °F 8.2 °F 57% 30.32 in 10.0 mi North 28.8 mph 34.5 mph N/A   Clear
7:15 PM 18.7 °F 0.8 °F 8.4 °F 64% 30.35 in 10.0 mi North 25.3 mph 33.4 mph N/A   Clear
7:35 PM 16.9 °F -1.6 °F 6.6 °F 64% 30.37 in 10.0 mi North 25.3 mph 31.1 mph N/A   Clear
7:55 PM 15.6 °F -5.2 °F 3.9 °F 60% 30.37 in 10.0 mi North 32.2 mph 39.1 mph N/A   Clear
8:15 PM 14.9 °F -3.1 °F 3.2 °F 60% 30.38 in 10.0 mi North 21.9 mph 31.1 mph N/A   Clear
8:35 PM 14.4 °F -5.7 °F 3.0 °F 61% 30.39 in 10.0 mi North 27.6 mph 35.7 mph N/A   Clear
8:55 PM 13.5 °F -7.9 °F 1.4 °F 59% 30.40 in 10.0 mi North 31.1 mph 38.0 mph N/A   Clear
9:15 PM 12.6 °F -6.2 °F 1.0 °F 60% 30.41 in 10.0 mi North 21.9 mph 28.8 mph N/A   Clear
9:35 PM 12.0 °F -5.1 °F 1.4 °F 62% 30.42 in 10.0 mi North 17.3 mph 28.8 mph N/A   Clear
9:55 PM 10.8 °F -8.6 °F 0.3 °F 63% 30.42 in 10.0 mi North 21.9 mph 28.8 mph N/A   Clear
10:15 PM 9.9 °F -9.8 °F -1.5 °F 60% 30.44 in 10.0 mi North 21.9 mph 28.8 mph N/A   Clear
10:35 PM 9.1 °F -10.7 °F -2.2 °F 60% 30.45 in 10.0 mi North 21.9 mph 26.5 mph N/A   Clear
10:55 PM 8.4 °F -10.3 °F -2.4 °F 62% 30.46 in 10.0 mi North 18.4 mph 24.2 mph N/A   Clear
11:15 PM 7.7 °F -7.4 °F -2.6 °F 63% 30.46 in 10.0 mi North 11.5 mph - N/A   Clear
11:35 PM 7.3 °F -12.2 °F -3.6 °F 61% 30.47 in 10.0 mi North 19.6 mph 24.2 mph N/A   Clear
11:55 PM 6.8 °F -12.4 °F -4.2 °F 61% 30.47 in 10.0 mi North 18.4 mph 23.0 mph N/A   Clear